TimeCST,TemperatureF,Dew PointF,Humidity,Sea Level PressureIn,VisibilityMPH,Wind Direction,Wind SpeedMPH,Gust SpeedMPH,PrecipitationIn,Events,Conditions,WindDirDegrees,DateUTC
12:53 AM,30.9,19.9,64,30.18,10.0,NW,4.6,-,N/A,,Clear,320,2013-02-12 06:53:00
1:53 AM,30.0,19.9,66,30.18,10.0,NW,4.6,-,N/A,,Clear,310,2013-02-12 07:53:00
2:53 AM,30.9,19.9,64,30.15,10.0,North,5.8,-,N/A,,Clear,360,2013-02-12 08:53:00
3:53 AM,28.9,21.0,72,30.15,10.0,Calm,Calm,-,N/A,,Clear,0,2013-02-12 09:53:00
4:53 AM,28.0,21.0,75,30.14,10.0,NE,4.6,-,N/A,,Clear,40,2013-02-12 10:53:00
5:53 AM,28.0,21.9,78,30.15,10.0,NE,4.6,-,N/A,,Clear,40,2013-02-12 11:53:00
6:53 AM,28.0,23.0,81,30.14,10.0,ENE,5.8,-,N/A,,Clear,70,2013-02-12 12:53:00
7:53 AM,26.1,23.0,88,30.15,10.0,Calm,Calm,-,N/A,,Partly Cloudy,0,2013-02-12 13:53:00
8:53 AM,30.0,24.1,79,30.14,10.0,Calm,Calm,-,N/A,,Partly Cloudy,0,2013-02-12 14:53:00
9:36 AM,30.2,24.8,80,30.10,9.0,SE,3.5,-,N/A,,Clear,140,2013-02-12 15:36:00
9:53 AM,30.9,26.1,82,30.13,9.0,Calm,Calm,-,N/A,,Clear,0,2013-02-12 15:53:00
10:53 AM,32.0,28.0,85,30.13,9.0,South,4.6,-,N/A,,Clear,180,2013-02-12 16:53:00
11:53 AM,35.1,28.0,76,30.11,10.0,South,4.6,-,N/A,,Clear,170,2013-02-12 17:53:00
12:53 PM,37.9,25.0,60,30.10,10.0,Calm,Calm,-,N/A,,Clear,0,2013-02-12 18:53:00
1:53 PM,39.0,24.1,55,30.08,10.0,Calm,Calm,-,N/A,,Clear,0,2013-02-12 19:53:00
2:53 PM,39.9,23.0,51,30.04,10.0,Calm,Calm,-,N/A,,Clear,0,2013-02-12 20:53:00
3:53 PM,39.9,24.1,53,30.02,10.0,Calm,Calm,-,N/A,,Clear,0,2013-02-12 21:53:00
4:53 PM,39.9,24.1,53,30.01,10.0,Calm,Calm,-,N/A,,Overcast,0,2013-02-12 22:53:00
5:53 PM,39.0,24.1,55,30.00,10.0,Calm,Calm,-,N/A,,Overcast,0,2013-02-12 23:53:00
6:53 PM,37.9,24.1,57,30.01,10.0,Calm,Calm,-,N/A,,Overcast,0,2013-02-13 00:53:00
7:53 PM,37.0,25.0,62,30.01,10.0,SSW,3.5,-,N/A,,Overcast,210,2013-02-13 01:53:00
8:53 PM,36.0,25.0,64,30.00,10.0,SW,3.5,-,N/A,,Mostly Cloudy,230,2013-02-13 02:53:00
9:53 PM,35.1,24.1,64,30.00,10.0,SW,4.6,-,N/A,,Clear,230,2013-02-13 03:53:00
10:53 PM,34.0,23.0,64,29.99,10.0,SW,3.5,-,N/A,,Clear,220,2013-02-13 04:53:00
11:53 PM,33.1,24.1,70,29.98,10.0,SW,5.8,-,N/A,,Clear,230,2013-02-13 05:53:00